Weather in Steregushee

Russia / Republic of Crimea     45°45′00″N   33°13′49″E
temp.,
°C
wind,
m/s
gust,
m/s
humid.,
%
clouds,
%
prec.,
mm/h
press.,
hPa
HPBL,
m
27 february, sat
sat2700:00+7sw713870 0.0 1022267
03:00+7sw711890 0.0 1021256
06:00+7sw611910 0.0 1019211
09:00+8sw610870 0.0 1018296
12:00+9wsw68790 0.0 1018342
15:00+9wnw457613 0.0 1018242
18:00+7nnw81090100 0.1 1017384
21:00+6nnw81086100 0.6 1019553
28 february, sun
sun2800:00+5nnw6981100 0.0 1020565
03:00+5nnw7882100 0.1 1020482
06:00+4nnw5789100 0.1 1021568
09:00+3nnw5693100 0.5 1021433
12:00+5nnw787385 0.6 1022909
15:00+5nw787579 0.8 1022862
18:00+4nw788279 0.1 1022708
21:00+4nw677587 0.3 1024779
1 march, mon
mon100:00+3nnw567898 0.1 1024568
03:00+2nw357798 0.1 1024395
06:00+3nw457099 0.1 1025555
09:00+3nnw347098 0.1 1025613
12:00+4n336863 0.0 1026686
15:00+4nnw336645 0.0 1027630
18:00+4nw347181 0.0 1027405
21:00+4nne247484 0.1 1030380
2 march, tue
tue200:00+3ne357597 0.1 1030289
03:00+3nne347099 0.1 1031322
06:00+1n227533 0.0 1030201
09:00+3nw237625 0.0 1031509
12:00+4wnw56679 0.0 1030689
15:00+5w787438 0.0 1028716
18:00+5w7117763 0.0 1026644
21:00+5w7118358 0.0 1026298
3 march, wed
wed300:00+6wnw5786100 0.0 1027212
03:00+4nnw458950 0.0 1027122
06:00+3nnw33900 0.0 102791
09:00+4wnw34850 0.0 1027262
12:00+6wnw55760 0.0 1027316
15:00+7w56710 0.0 1026306
18:00+6w578041 0.0 1026202
21:00+5w348520 0.0 102770